[[{"header":{"parameterUnit":"m.s-1","parameterCategory":1,"la1":30.2991,"la2":30.254,"lo1":-89.0895,"lo2":-89.0444,"dy":0.0017,"dx":0.0017,"nx":28,"ny":28,"refTime":"2024-05-22T03:00:00:Z","depth":0,"parameterNumber":2,"parameterNumberName":"U-component_of_WINDS"},"data":[0,0,0,0,0,0,0,0,0,0,0,0,0,0,0,0,0,0,0,0,0,0,0,0,0,0,0,0,0,0,0,0,0,0,0,0,0,0,0,0,0,0,0,0,0,0,0,0,0,0,0,0,0,0,0,0,0,0,-2.437,-2.437,0,-2.4361,-2.4361,-2.4361,-2.4348,-2.4348,-2.4348,-2.4348,-2.4337,-2.4337,-2.4336,0,0,0,0,0,0,0,0,0,0,0,0,0,-2.4378,-2.4378,-2.437,-2.437,-2.437,-2.4361,-2.4361,-2.4361,-2.4349,-2.4348,-2.4348,-2.4348,-2.4337,-2.4337,-2.4336,0,0,0,0,0,0,0,0,0,0,0,0,0,-2.4372,-2.4378,-2.437,-2.4363,-2.4362,-2.4361,-2.4361,-2.436,-2.4349,-2.4348,-2.4348,-2.4348,-2.4337,-2.4337,-2.4336,-2.4341,0,0,-2.4336,-2.4336,0,0,0,0,0,0,0,0,-2.4373,-2.4372,-2.4364,-2.4364,-2.4363,-2.4356,-2.4359,-2.4354,-2.4349,-2.4354,-2.4348,-2.4348,-2.4343,-2.4342,-2.4341,-2.434,-2.434,-2.4336,-2.4336,-2.4336,-2.4336,0,0,0,0,0,0,0,-2.4373,-2.4372,-2.4367,-2.4364,-2.4363,-2.436,-2.4359,-2.4358,-2.435,-2.4353,-2.4352,-2.4352,-2.4343,-2.4341,-2.4341,-2.434,-2.4336,-2.4336,-2.4335,-2.4335,-2.4343,-2.4343,0,0,0,0,0,0,-2.4375,-2.4373,-2.4367,-2.4366,-2.4367,-2.436,-2.4359,-2.4358,-2.435,-2.4349,-2.4352,-2.4351,-2.4342,-2.4341,-2.434,-2.4345,-2.4336,-2.4335,-2.4335,-2.4343,-2.4343,-2.4343,0,0,0,0,0,0,-2.4375,-2.4374,-2.4367,-2.4369,-2.4368,-2.436,-2.436,-2.4358,-2.4357,-2.4349,-2.4347,-2.4352,-2.4342,-2.4341,-2.4341,-2.4345,-2.4335,-2.4335,-2.4342,-2.4343,-2.4343,-2.4355,0,0,0,0,0,0,-2.4375,-2.4374,-2.4376,-2.4369,-2.4368,-2.4368,-2.436,-2.4358,-2.4357,-2.4356,-2.4349,-2.4347,-2.4341,-2.4341,-2.4341,-2.4344,-2.4335,-2.4342,-2.4342,-2.4343,-2.4354,-2.4356,-2.4357,0,0,0,0,0,-2.4375,-2.4379,-2.4376,-2.4375,-2.437,-2.4368,-2.4368,-2.4361,-2.4357,-2.4358,-2.4354,-2.4347,-2.4345,-2.4342,-2.4341,-2.4344,-2.4342,-2.4342,-2.4343,-2.4353,-2.4355,-2.4357,0,0,0,0,0,0,-2.4385,-2.4378,-2.4374,-2.4376,-2.4373,-2.4366,-2.4368,-2.4363,-2.4361,-2.436,-2.4351,-2.435,-2.4352,-2.4348,-2.4345,-2.4349,-2.4342,-2.4343,-2.435,-2.4352,-2.4354,-2.4354,-2.4335,0,0,0,0,0,-2.4388,-2.4387,-2.4381,-2.4383,-2.4382,-2.4375,-2.4374,-2.437,-2.4366,-2.4365,-2.436,-2.4356,-2.4354,-2.4353,-2.4351,-2.4354,-2.4352,-2.4356,-2.4358,-2.4359,-2.4359,-2.4361,-2.4362,-2.4346,-2.4346,-2.4346,0,0,-2.4393,-2.4389,-2.4389,-2.4385,-2.4382,-2.4382,-2.4374,-2.4374,-2.4374,-2.4364,-2.4364,-2.4361,-2.4357,-2.4358,-2.4359,-2.4356,-2.4364,-2.436,-2.4361,-2.436,-2.4362,-2.4363,-2.4365,-2.4346,-2.4346,-2.4346,0,0,-2.4401,-2.4398,-2.44,-2.4398,-2.4394,-2.4389,-2.439,-2.4384,-2.4382,-2.4382,-2.4376,-2.4375,-2.4372,-2.437,-2.4368,-2.4378,-2.4372,-2.4377,-2.4384,-2.4386,-2.4387,-2.4388,-2.4391,-2.4393,-2.4378,-2.4378,-2.4378,0,-2.4407,-2.4407,-2.4401,-2.4402,-2.4401,-2.4393,-2.4395,-2.4393,-2.4388,-2.4387,-2.4384,-2.4381,-2.4378,-2.4379,-2.4382,-2.4381,-2.4381,-2.4377,-2.4388,-2.4389,-2.439,-2.4392,-2.4394,-2.4378,-2.4378,-2.4378,-2.4378,0,-2.4415,-2.4415,-2.4417,-2.4413,-2.4412,-2.4413,-2.4408,-2.4408,-2.4404,-2.44,-2.4401,-2.4397,-2.4394,-2.4395,-2.439,-2.4396,-2.4394,-2.4389,-2.4382,-2.4392,-2.4394,-2.4396,-2.4379,-2.4379,-2.4379,-2.4379,0,0,-2.4427,-2.4422,-2.4423,-2.4422,-2.4418,-2.4417,-2.4419,-2.4417,-2.4417,-2.4414,-2.4415,-2.4414,-2.441,-2.4408,-2.4404,-2.4405,-2.4413,-2.4401,-2.4401,-2.4403,-2.4419,-2.4422,-2.4423,-2.441,-2.441,-2.4411,-2.4419,0,-2.4435,-2.4436,-2.4432,-2.4435,-2.4435,-2.4429,-2.443,-2.4428,-2.4425,-2.4424,-2.4421,-2.442,-2.4415,-2.4414,-2.4416,-2.4412,-2.4416,-2.4412,-2.441,-2.441,-2.441,-2.4424,-2.4427,-2.4435,-2.442,-2.442,-2.442,0,-2.4443,-2.4442,-2.4445,-2.4441,-2.4441,-2.4442,-2.4441,-2.444,-2.4438,-2.4436,-2.4435,-2.443,-2.4431,-2.4426,-2.4428,-2.4424,-2.4424,-2.4422,-2.4423,-2.4421,-2.4415,-2.4423,-2.4437,-2.4438,-2.4422,-2.4422,-2.4422,0,-2.4451,-2.4451,-2.4452,-2.4452,-2.4448,-2.4449,-2.4447,-2.4445,-2.4444,-2.4443,-2.4442,-2.4441,-2.444,-2.444,-2.4435,-2.4432,-2.4437,-2.4432,-2.4435,-2.4435,-2.4435,-2.4435,-2.4449,-2.4437,-2.4437,-2.4437,-2.4437,0,-2.4459,-2.4461,-2.4456,-2.4457,-2.4459,-2.4455,-2.4457,-2.4455,-2.4453,-2.4454,-2.4449,-2.4449,-2.4444,-2.4444,-2.4441,-2.4442,-2.4442,-2.444,-2.4439,-2.444,-2.444,-2.4439,-2.4438,-2.4437,-2.4437,-2.4437,-2.4437,0,-2.4468,-2.4465,-2.4467,-2.4464,-2.4463,-2.4465,-2.4462,-2.4463,-2.446,-2.4461,-2.4461,-2.4457,-2.4457,-2.4453,-2.4452,-2.445,-2.4453,-2.4451,-2.4453,-2.4453,-2.4456,-2.4456,-2.4469,-2.447,-2.4458,-2.4458,-2.4458,0,-2.4473,-2.4475,-2.4472,-2.4472,-2.4471,-2.4472,-2.4471,-2.4467,-2.4467,-2.4466,-2.4467,-2.4467,-2.4466,-2.4466,-2.4463,-2.4463,-2.446,-2.4465,-2.446,-2.4461,-2.446,-2.4459,-2.4459,-2.4466,-2.4466,-2.4466,-2.4466,0,-2.4482,-2.4481,-2.4481,-2.448,-2.448,-2.448,-2.4479,-2.4479,-2.4475,-2.4476,-2.4476,-2.4476,-2.4475,-2.4475,-2.4474,-2.4473,-2.4469,-2.4468,-2.4469,-2.4469,-2.447,-2.4469,-2.4455,-2.4467,-2.4467,-2.4467,-2.4467,-2.4467,-2.4489,-2.449,-2.4488,-2.4489,-2.4488,-2.4488,-2.4488,-2.4487,-2.4487,-2.4486,-2.4484,-2.4485,-2.4484,-2.4482,-2.4481,-2.4482,-2.4479,-2.448,-2.448,-2.448,-2.4481,-2.4471,-2.4482,-2.4482,-2.4482,-2.4481,-2.4481,0,-2.4497,-2.4496,-2.4496,-2.4496,-2.4496,-2.4493,-2.4493,-2.4493,-2.4494,-2.4493,-2.4493,-2.4494,-2.4494,-2.4492,-2.4492,-2.4493,-2.4491,-2.4493,-2.4492,-2.4492,-2.4483,-2.4482,-2.4494,-2.4494,-2.4494,-2.4494,-2.4494,-2.4494,-2.4501,-2.4503,-2.4501,-2.4503,-2.4502,-2.4503,-2.4503,-2.4503,-2.4502,-2.4503,-2.4503,-2.4502,-2.4501,-2.4501,-2.4501,-2.4501,-2.45,-2.4503,-2.4501,-2.4493,-2.4492,-2.4491,-2.449,-2.4503,-2.4503,-2.4509,-2.451,-2.451]},{"header":{"parameterUnit":"m.s-1","parameterCategory":1,"la1":30.2991,"la2":30.254,"lo1":-89.0895,"lo2":-89.0444,"dy":0.0017,"dx":0.0017,"nx":28,"ny":28,"refTime":"2024-05-22T03:00:00:Z","depth":0,"parameterNumber":3,"parameterNumberName":"V-component_of_WINDS"},"data":[0,0,0,0,0,0,0,0,0,0,0,0,0,0,0,0,0,0,0,0,0,0,0,0,0,0,0,0,0,0,0,0,0,0,0,0,0,0,0,0,0,0,0,0,0,0,0,0,0,0,0,0,0,0,0,0,0,0,5.2358,5.2358,0,5.2332,5.2332,5.2331,5.2281,5.228,5.2279,5.2278,5.2249,5.225,5.225,0,0,0,0,0,0,0,0,0,0,0,0,0,5.2363,5.2363,5.2358,5.2358,5.2357,5.2332,5.2332,5.2331,5.2282,5.228,5.2279,5.2278,5.2249,5.225,5.225,0,0,0,0,0,0,0,0,0,0,0,0,0,5.2351,5.2363,5.2358,5.2329,5.2327,5.2332,5.2332,5.2331,5.2282,5.228,5.2279,5.2277,5.2249,5.225,5.225,5.228,0,0,5.225,5.225,0,0,0,0,0,0,0,0,5.2352,5.2351,5.2334,5.2331,5.2328,5.2308,5.2323,5.2314,5.2282,5.2299,5.2278,5.2277,5.227,5.2268,5.2267,5.2279,5.2277,5.225,5.225,5.2251,5.2251,0,0,0,0,0,0,0,5.2353,5.2352,5.2347,5.2334,5.233,5.2318,5.2314,5.2321,5.2293,5.2297,5.2293,5.2291,5.2268,5.2267,5.2266,5.2277,5.225,5.2251,5.2251,5.2251,5.2315,5.2317,0,0,0,0,0,0,5.2358,5.2353,5.2348,5.2347,5.2337,5.2319,5.2315,5.2316,5.2293,5.2288,5.2293,5.2289,5.2267,5.2265,5.2264,5.23,5.2251,5.2251,5.2251,5.2314,5.2315,5.2317,0,0,0,0,0,0,5.2359,5.2358,5.2349,5.2349,5.2347,5.232,5.2322,5.2316,5.2315,5.2289,5.2284,5.2296,5.2266,5.2264,5.2277,5.2298,5.2251,5.2251,5.2312,5.2314,5.2316,5.2371,0,0,0,0,0,0,5.2359,5.2359,5.237,5.235,5.2347,5.2363,5.2323,5.2317,5.2316,5.2311,5.2291,5.2286,5.2265,5.2277,5.2278,5.2298,5.2251,5.231,5.2313,5.2316,5.2367,5.2375,5.2381,0,0,0,0,0,5.2359,5.2385,5.2371,5.2371,5.2361,5.2364,5.2363,5.2338,5.2318,5.2329,5.2313,5.2287,5.2296,5.2279,5.2279,5.23,5.2308,5.2312,5.2315,5.2364,5.2373,5.2381,0,0,0,0,0,0,5.2407,5.2382,5.2366,5.2386,5.2378,5.2356,5.2369,5.2348,5.2345,5.2341,5.2309,5.2305,5.2323,5.2312,5.2294,5.2329,5.2298,5.2302,5.2335,5.2344,5.2351,5.2353,5.2251,0,0,0,0,0,5.2421,5.2426,5.2403,5.2423,5.242,5.2396,5.2396,5.2378,5.2368,5.2364,5.2349,5.2339,5.234,5.2341,5.234,5.2365,5.2361,5.238,5.2387,5.2393,5.2397,5.2411,5.2419,5.2329,5.2329,5.2329,0,0,5.2447,5.2434,5.2439,5.2433,5.2424,5.2431,5.2393,5.2401,5.2406,5.2365,5.2377,5.2366,5.2353,5.2373,5.2381,5.2365,5.2421,5.2397,5.2402,5.2403,5.2416,5.2424,5.2432,5.2331,5.2331,5.2331,0,0,5.25,5.249,5.2507,5.25,5.2488,5.2472,5.2476,5.2458,5.245,5.2462,5.2432,5.2437,5.2438,5.2432,5.2428,5.2481,5.2458,5.2482,5.2519,5.2534,5.2541,5.2547,5.2567,5.2575,5.2485,5.2485,5.2486,0,5.2534,5.2544,5.2518,5.2529,5.2527,5.2492,5.2509,5.2503,5.2492,5.2492,5.2474,5.2478,5.2466,5.2485,5.2499,5.2496,5.2501,5.2484,5.2542,5.2548,5.2553,5.2572,5.258,5.2488,5.2488,5.2488,5.2488,0,5.2588,5.2595,5.2609,5.2601,5.2601,5.2615,5.2592,5.2595,5.2577,5.2563,5.2577,5.2563,5.256,5.2563,5.2544,5.2579,5.257,5.2548,5.2516,5.2566,5.2583,5.259,5.2493,5.2492,5.2491,5.249,0,0,5.2668,5.2648,5.2654,5.265,5.2636,5.2641,5.2654,5.2652,5.2656,5.265,5.266,5.2664,5.2644,5.264,5.2621,5.2634,5.2679,5.261,5.2609,5.2625,5.2719,5.2736,5.2745,5.2664,5.2665,5.2666,5.272,0,5.2719,5.274,5.2718,5.2744,5.2751,5.2719,5.273,5.2723,5.2711,5.2715,5.27,5.2704,5.2677,5.2675,5.2686,5.2671,5.2698,5.2667,5.2673,5.2674,5.2679,5.2754,5.2772,5.2824,5.2727,5.2728,5.2728,0,5.278,5.2778,5.2806,5.2792,5.2794,5.2805,5.2802,5.2806,5.2798,5.2788,5.2786,5.2764,5.2776,5.2745,5.2762,5.2742,5.2743,5.2737,5.2738,5.2738,5.2705,5.2757,5.2839,5.2848,5.2739,5.2738,5.2737,0,5.2838,5.2843,5.286,5.2858,5.2842,5.2851,5.2844,5.2834,5.2836,5.2833,5.2834,5.2833,5.2833,5.2832,5.2811,5.2791,5.2831,5.2798,5.2824,5.2825,5.2834,5.2834,5.2919,5.2834,5.2833,5.2833,5.2833,0,5.2897,5.2915,5.2887,5.2898,5.2917,5.2892,5.2913,5.2903,5.2895,5.2903,5.2875,5.2883,5.2854,5.286,5.2843,5.286,5.286,5.2853,5.2848,5.2856,5.2857,5.2857,5.2853,5.2835,5.2835,5.2834,5.2834,0,5.2966,5.2947,5.2964,5.2949,5.2945,5.2961,5.2947,5.2957,5.2943,5.2954,5.2955,5.2934,5.2939,5.2918,5.2919,5.2908,5.2935,5.2923,5.2938,5.2935,5.2962,5.2961,5.3051,5.3062,5.2969,5.297,5.297,0,5.3005,5.3019,5.3005,5.3009,5.3005,5.3012,5.3014,5.299,5.2993,5.2985,5.2996,5.2999,5.3001,5.3011,5.2995,5.2997,5.2986,5.3018,5.2986,5.2994,5.2988,5.2988,5.299,5.3024,5.3026,5.3026,5.3027,0,5.3077,5.3068,5.3072,5.3073,5.3077,5.3076,5.3074,5.3079,5.3053,5.3058,5.3064,5.3065,5.3068,5.3072,5.3071,5.3063,5.3042,5.3038,5.3044,5.3052,5.3061,5.3058,5.2957,5.3035,5.3035,5.3034,5.3034,5.3033,5.3133,5.3145,5.3138,5.3144,5.314,5.3139,5.3148,5.3136,5.3141,5.3142,5.3127,5.3137,5.3129,5.3126,5.3121,5.3128,5.3113,5.3122,5.3124,5.3127,5.3133,5.3059,5.3128,5.3127,5.3127,5.3127,5.3127,0,5.3205,5.32,5.3205,5.3204,5.3209,5.3189,5.3186,5.3191,5.32,5.3196,5.3199,5.3206,5.3211,5.3197,5.3199,5.3208,5.3198,5.3209,5.3209,5.3208,5.3145,5.314,5.3217,5.3217,5.3217,5.3217,5.3217,5.3217,5.3243,5.3263,5.3253,5.327,5.3264,5.3274,5.3274,5.3274,5.327,5.3281,5.3285,5.3276,5.3268,5.327,5.3273,5.3269,5.3271,5.3287,5.3279,5.3221,5.3212,5.3203,5.3199,5.3287,5.3287,5.3341,5.3342,5.3342]}]]